[TLELIST] Archives

 

[list_settings.list_name] Current TLEs

January 2nd 2022 PDT

HST 1 20580U 90037B 22001.89863089 .00001088 00000-0 54470-4 0 9991 2 20580 28.4687 191.7993 0002781 42.7005 64.8704 15.09919876541012 ISS (ZARYA) 1 25544U 98067A 22001.94130787 .00016940 00000-0 30574-3 0 9996 2 25544 51.6442 79.8597 0005411 353.7671 348.8366 15.49844104319395 CXO 1 25867U 99040B 22004.09090446 .00000365 00000-0 00000-0 0 9994 2 25867 49.8826 245.7025 8615177 228.9485 0.0885 0.37809872 11170 ____________________________________________________________________ These 2-Line ...Continue Reading

[list_settings.list_name] Current TLEs

January 1st 2022 PDT

HST 1 20580U 90037B 21365.84494733 .00001067 00000-0 53234-4 0 9998 2 20580 28.4687 198.7743 0002740 31.8561 96.8389 15.09917499540857 ISS (ZARYA) 1 25544U 98067A 21365.74478878 .00006409 00000-0 12092-3 0 9996 2 25544 51.6443 85.7842 0004868 347.2200 155.1528 15.49821812319217 CXO 1 25867U 99040B 21363.80384934 .00000433 00000-0 00000-0 0 9994 2 25867 50.0503 246.0023 8607313 228.8766 0.1781 0.37808964 11157 ____________________________________________________________________ These 2-Line ...Continue Reading

[list_settings.list_name] Current TLEs

December 31st 2021 PDT

HST 1 20580U 90037B 21364.92052529 .00001225 00000-0 62760-4 0 9999 2 20580 28.4687 204.8937 0002702 22.2575 111.5901 15.09916293540719 ISS (ZARYA) 1 25544U 98067A 21364.77809345 .00006711 00000-0 12628-3 0 9996 2 25544 51.6441 90.5725 0004822 343.1133 162.1862 15.49810088319064 CXO 1 25867U 99040B 21363.80384934 .00000433 00000-0 00000-0 0 9994 2 25867 50.0503 246.0023 8607313 228.8766 0.1781 0.37808964 11157 ____________________________________________________________________ These 2-Line ...Continue Reading

[list_settings.list_name] Current TLEs

December 30th 2021 PDT

HST 1 20580U 90037B 21363.92829497 .00001391 00000-0 72742-4 0 9999 2 20580 28.4687 211.4621 0002675 11.9695 117.7206 15.09914868540835 ISS (ZARYA) 1 25544U 98067A 21363.74155547 .00006144 00000-0 11638-3 0 9990 2 25544 51.6440 95.7051 0004699 339.1293 139.2031 15.49793313318902 CXO 1 25867U 99040B 21363.80384934 .00000433 00000-0 00000-0 0 9994 2 25867 50.0503 246.0023 8607313 228.8766 0.1781 0.37808964 11157 ____________________________________________________________________ These 2-Line ...Continue Reading

[list_settings.list_name] Current TLEs

December 29th 2021 PDT

HST 1 20580U 90037B 21362.85993796 .00001438 00000-0 75558-4 0 9994 2 20580 28.4688 218.5344 0002640 0.6453 70.2715 15.09912327540404 ISS (ZARYA) 1 25544U 98067A 21363.35270374 .00005946 00000-0 11291-3 0 9997 2 25544 51.6435 97.6301 0004686 336.3559 131.0422 15.49787287318845 CXO 1 25867U 99040B 21363.80384934 .00000433 00000-0 00000-0 0 9994 2 25867 50.0503 246.0023 8607313 228.8766 0.1781 0.37808964 11157 ____________________________________________________________________ These 2-Line ...Continue Reading

[list_settings.list_name] Current TLEs

December 28th 2021 PDT

HST 1 20580U 90037B 21361.86779358 .00001595 00000-0 85000-4 0 9997 2 20580 28.4689 225.1019 0002600 349.8023 77.4417 15.09910545540256 ISS (ZARYA) 1 25544U 98067A 21362.37962764 .00005822 00000-0 11076-3 0 9993 2 25544 51.6437 102.4510 0004680 332.9165 101.8950 15.49774144318695 CXO 1 25867U 99040B 21363.80384934 .00000433 00000-0 00000-0 0 9994 2 25867 50.0503 246.0023 8607313 228.8766 0.1781 0.37808964 11157 ____________________________________________________________________ These 2-Line ...Continue Reading

[list_settings.list_name] Current TLEs

December 27th 2021 PDT

HST 1 20580U 90037B 21361.08557150 .00001413 00000-0 74053-4 0 9990 2 20580 28.4691 230.2800 0002578 341.2291 145.6775 15.09907193540408 ISS (ZARYA) 1 25544U 98067A 21361.15255852 -.00027449 00000-0 -47888-3 0 9992 2 25544 51.6427 108.5306 0005127 329.6854 94.5817 15.49737411318505 CXO 1 25867U 99040B 21363.80384934 .00000433 00000-0 00000+0 0 9993 2 25867 50.0503 246.0023 8607313 228.8766 0.1781 0.37808964 22317 ____________________________________________________________________ These 2-Line ...Continue Reading

[list_settings.list_name] Current TLEs

December 26th 2021 PDT

HST 1 20580U 90037B 21359.88352918 .00001636 00000-0 87490-4 0 9996 2 20580 28.4693 238.2368 0002532 327.7076 92.3461 15.09904816539954 ISS (ZARYA) 1 25544U 98067A 21360.18686333 -.00007764 00000-0 -12931-3 0 9995 2 25544 51.6439 113.3129 0004914 326.7026 106.2951 15.49741510318355 CXO 1 25867U 99040B 21361.15842972 .00000550 00000-0 00000-0 0 9991 2 25867 50.1536 246.1970 8607772 228.7995 0.0432 0.37813712 11146 ____________________________________________________________________ These 2-Line ...Continue Reading

[list_settings.list_name] Current TLEs

December 25th 2021 PDT

HST 1 20580U 90037B 21358.89712469 .00001604 00000-0 85581-4 0 9991 2 20580 28.4695 244.7662 0002503 316.6332 131.0347 15.09901491539809 ISS (ZARYA) 1 25544U 98067A 21359.41270153 .00007205 00000-0 13531-3 0 9993 2 25544 51.6427 117.1453 0004669 320.0140 111.0300 15.49738518318238 CXO 1 25867U 99040B 21361.15842972 .00000550 00000-0 00000-0 0 9991 2 25867 50.1536 246.1970 8607772 228.7995 0.0432 0.37813712 11146 ____________________________________________________________________ These 2-Line ...Continue Reading

[list_settings.list_name] Current TLEs

December 24th 2021 PDT

HST 1 20580U 90037B 21357.89927861 .00001644 00000-0 87962-4 0 9993 2 20580 28.4697 251.3711 0002479 305.2494 107.7291 15.09898624539659 ISS (ZARYA) 1 25544U 98067A 21358.18587668 .00007918 00000-0 15131-3 0 9997 2 25544 51.6429 123.2212 0004312 348.6170 73.1429 15.49077983318046 CXO 1 25867U 99040B 21361.15819778 .00000550 00000-0 00000+0 0 9998 2 25867 50.1537 246.1969 8607747 228.7995 0.0115 0.37814563 22300 ____________________________________________________________________ These 2-Line ...Continue Reading
  • This mailing list is a public mailing list - anyone may join or leave, at any time.
  • This mailing list is announce-only.

International Space Station (ISS) / Hubble Space Telescope (HST) / Chandra X-Ray Observatory Orbital Data via EMAIL

Privacy Policy:

Private list